Time,TemperatureF,DewpointF,PressureIn,WindDirection,WindDirectionDegrees,WindSpeedMPH,WindSpeedGustMPH,Humidity,HourlyPrecipIn,Conditions,Clouds,dailyrainin,SoftwareType,DateUTC
2013-01-19 00:04:00,21.0,8.0,30.33,South,169,5.0,-999.0,56,-99.99,,,-99.99,,2013-01-19 05:04:00,
2013-01-19 00:12:00,21.0,8.0,30.33,South,169,5.0,-999.0,56,-99.99,,,-99.99,,2013-01-19 05:12:00,
2013-01-19 00:23:00,22.0,8.0,30.32,SSW,211,7.0,-999.0,55,-99.99,,,-99.99,,2013-01-19 05:23:00,
2013-01-19 00:33:00,22.0,8.0,30.32,SSE,153,7.0,-999.0,55,-99.99,,,-99.99,,2013-01-19 05:33:00,
2013-01-19 00:43:00,22.0,8.0,30.32,SSE,153,7.0,-999.0,55,-99.99,,,-99.99,,2013-01-19 05:43:00,
2013-01-19 00:53:00,22.0,9.0,30.30,SSE,160,6.0,-999.0,56,-99.99,,,-99.99,,2013-01-19 05:53:00,
2013-01-19 01:03:00,23.0,9.0,30.30,SW,226,7.0,-999.0,55,-99.99,,,-99.99,,2013-01-19 06:03:00,
2013-01-19 01:12:00,23.0,9.0,30.30,SW,226,7.0,-999.0,55,-99.99,,,-99.99,,2013-01-19 06:12:00,
2013-01-19 01:23:00,23.0,9.0,30.30,SW,225,7.0,-999.0,55,-99.99,,,-99.99,,2013-01-19 06:23:00,
2013-01-19 01:33:00,23.0,9.0,30.30,SSW,204,10.0,-999.0,54,-99.99,,,-99.99,,2013-01-19 06:33:00,
2013-01-19 01:43:00,23.0,9.0,30.30,SSW,204,10.0,-999.0,54,-99.99,,,-99.99,,2013-01-19 06:43:00,
2013-01-19 01:53:00,24.0,10.0,30.30,SW,232,7.0,-999.0,54,-99.99,,,-99.99,,2013-01-19 06:53:00,
2013-01-19 02:02:00,24.0,9.0,30.30,SW,229,7.0,-999.0,53,-99.99,,,-99.99,,2013-01-19 07:02:00,
2013-01-19 02:12:00,24.0,9.0,30.30,SW,229,7.0,-999.0,53,-99.99,,,-99.99,,2013-01-19 07:12:00,
2013-01-19 02:22:00,24.0,9.0,30.29,South,188,6.0,-999.0,53,-99.99,,,-99.99,,2013-01-19 07:22:00,
2013-01-19 02:33:00,25.0,10.0,30.29,SW,225,6.0,-999.0,53,-99.99,,,-99.99,,2013-01-19 07:33:00,
2013-01-19 02:43:00,25.0,10.0,30.29,SW,225,6.0,-999.0,53,-99.99,,,-99.99,,2013-01-19 07:43:00,
2013-01-19 02:52:00,25.0,10.0,30.28,SSW,205,7.0,-999.0,53,-99.99,,,-99.99,,2013-01-19 07:52:00,
2013-01-19 03:02:00,25.0,10.0,30.27,SW,229,9.0,-999.0,53,-99.99,,,-99.99,,2013-01-19 08:02:00,
2013-01-19 03:12:00,25.0,10.0,30.27,SW,229,9.0,-999.0,53,-99.99,,,-99.99,,2013-01-19 08:12:00,
2013-01-19 03:22:00,25.0,11.0,30.26,SW,236,8.0,-999.0,54,-99.99,,,-99.99,,2013-01-19 08:22:00,
2013-01-19 03:33:00,25.0,11.0,30.24,WSW,242,8.0,-999.0,54,-99.99,,,-99.99,,2013-01-19 08:33:00,
2013-01-19 03:43:00,25.0,11.0,30.24,WSW,242,8.0,-999.0,54,-99.99,,,-99.99,,2013-01-19 08:43:00,
2013-01-19 03:52:00,26.0,12.0,30.24,South,172,6.0,-999.0,54,-99.99,,,-99.99,,2013-01-19 08:52:00,
2013-01-19 04:02:00,26.0,12.0,30.24,SW,234,8.0,-999.0,54,-99.99,,,-99.99,,2013-01-19 09:02:00,
2013-01-19 04:12:00,26.0,12.0,30.24,SW,234,8.0,-999.0,54,-99.99,,,-99.99,,2013-01-19 09:12:00,
2013-01-19 04:23:00,26.0,12.0,30.25,SW,223,8.0,-999.0,54,-99.99,,,-99.99,,2013-01-19 09:23:00,
2013-01-19 04:33:00,26.0,12.0,30.24,SW,229,6.0,-999.0,55,-99.99,,,-99.99,,2013-01-19 09:33:00,
2013-01-19 04:43:00,26.0,12.0,30.24,SW,229,6.0,-999.0,55,-99.99,,,-99.99,,2013-01-19 09:43:00,
2013-01-19 04:52:00,26.0,12.0,30.22,WSW,239,7.0,-999.0,55,-99.99,,,-99.99,,2013-01-19 09:52:00,
2013-01-19 05:02:00,26.0,12.0,30.22,West,272,7.0,-999.0,54,-99.99,,,-99.99,,2013-01-19 10:02:00,
2013-01-19 05:12:00,26.0,12.0,30.22,West,272,7.0,-999.0,54,-99.99,,,-99.99,,2013-01-19 10:12:00,
2013-01-19 05:23:00,27.0,13.0,30.21,SW,231,10.0,-999.0,54,-99.99,,,-99.99,,2013-01-19 10:23:00,
2013-01-19 05:33:00,27.0,13.0,30.21,NNW,345,8.0,-999.0,54,-99.99,,,-99.99,,2013-01-19 10:33:00,
2013-01-19 05:43:00,27.0,13.0,30.21,NNW,345,8.0,-999.0,54,-99.99,,,-99.99,,2013-01-19 10:43:00,
2013-01-19 05:52:00,27.0,13.0,30.21,SW,218,8.0,-999.0,55,-99.99,,,-99.99,,2013-01-19 10:52:00,
2013-01-19 06:03:00,27.0,13.0,30.21,SSW,209,7.0,-999.0,56,-99.99,,,-99.99,,2013-01-19 11:03:00,
2013-01-19 06:12:00,27.0,13.0,30.21,SSW,209,7.0,-999.0,56,-99.99,,,-99.99,,2013-01-19 11:12:00,
2013-01-19 06:41:00,27.0,13.0,30.20,SW,229,8.0,-999.0,56,-99.99,,,-99.99,,2013-01-19 11:41:00,
2013-01-19 07:48:00,27.0,13.0,30.20,South,184,7.0,-999.0,56,-99.99,,,-99.99,,2013-01-19 12:48:00,
2013-01-19 07:53:00,27.0,13.0,30.20,SE,139,8.0,-999.0,56,-99.99,,,-99.99,,2013-01-19 12:53:00,
2013-01-19 08:03:00,27.0,14.0,30.20,SSW,209,6.0,-999.0,57,-99.99,,,-99.99,,2013-01-19 13:03:00,
2013-01-19 08:13:00,27.0,14.0,30.20,SSW,209,6.0,-999.0,57,-99.99,,,-99.99,,2013-01-19 13:13:00,
2013-01-19 08:23:00,28.0,14.0,30.19,South,184,8.0,-999.0,56,-99.99,,,-99.99,,2013-01-19 13:23:00,
2013-01-19 08:34:00,28.0,14.0,30.19,South,190,8.0,-999.0,56,-99.99,,,-99.99,,2013-01-19 13:34:00,
2013-01-19 08:43:00,28.0,14.0,30.19,South,190,8.0,-999.0,56,-99.99,,,-99.99,,2013-01-19 13:43:00,
2013-01-19 08:53:00,28.0,14.0,30.19,SW,217,9.0,-999.0,56,-99.99,,,-99.99,,2013-01-19 13:53:00,
2013-01-19 09:03:00,30.0,15.0,30.18,SSW,201,8.0,-999.0,54,-99.99,,,-99.99,,2013-01-19 14:03:00,
2013-01-19 09:12:00,30.0,15.0,30.18,SSW,201,8.0,-999.0,54,-99.99,,,-99.99,,2013-01-19 14:12:00,
2013-01-19 09:23:00,31.0,16.0,30.19,WSW,239,8.0,-999.0,53,-99.99,,,-99.99,,2013-01-19 14:23:00,
2013-01-19 09:34:00,31.0,15.0,30.19,WSW,243,7.0,-999.0,52,-99.99,,,-99.99,,2013-01-19 14:34:00,
2013-01-19 09:43:00,31.0,15.0,30.19,WSW,243,7.0,-999.0,52,-99.99,,,-99.99,,2013-01-19 14:43:00,
2013-01-19 09:53:00,32.0,16.0,30.19,SW,227,9.0,-999.0,52,-99.99,,,-99.99,,2013-01-19 14:53:00,
2013-01-19 10:03:00,32.0,16.0,30.19,SW,227,9.0,-999.0,52,-99.99,,,-99.99,,2013-01-19 15:03:00,
2013-01-19 10:13:00,32.0,16.0,30.19,SW,227,9.0,-999.0,52,-99.99,,,-99.99,,2013-01-19 15:13:00,
2013-01-19 10:23:00,33.0,17.0,30.18,SSW,211,8.0,-999.0,51,-99.99,,,-99.99,,2013-01-19 15:23:00,
2013-01-19 10:33:00,34.0,17.0,30.18,WSW,240,9.0,-999.0,49,-99.99,,,-99.99,,2013-01-19 15:33:00,
2013-01-19 10:43:00,34.0,17.0,30.18,WSW,240,9.0,-999.0,49,-99.99,,,-99.99,,2013-01-19 15:43:00,
2013-01-19 10:53:00,35.0,17.0,30.18,ESE,107,8.0,-999.0,48,-99.99,,,-99.99,,2013-01-19 15:53:00,
2013-01-19 11:03:00,35.0,17.0,30.16,South,182,8.0,-999.0,48,-99.99,,,-99.99,,2013-01-19 16:03:00,
2013-01-19 11:13:00,35.0,17.0,30.16,South,182,8.0,-999.0,48,-99.99,,,-99.99,,2013-01-19 16:13:00,
2013-01-19 11:23:00,35.0,17.0,30.16,SSE,151,9.0,-999.0,48,-99.99,,,-99.99,,2013-01-19 16:23:00,
2013-01-19 11:33:00,36.0,18.0,30.14,South,177,8.0,-999.0,48,-99.99,,,-99.99,,2013-01-19 16:33:00,
2013-01-19 11:43:00,36.0,18.0,30.14,South,177,8.0,-999.0,48,-99.99,,,-99.99,,2013-01-19 16:43:00,
2013-01-19 11:53:00,36.0,18.0,30.13,WSW,245,8.0,-999.0,47,-99.99,,,-99.99,,2013-01-19 16:53:00,
2013-01-19 12:03:00,37.0,19.0,30.11,SW,217,9.0,-999.0,48,-99.99,,,-99.99,,2013-01-19 17:03:00,
2013-01-19 12:29:00,37.0,19.0,30.11,SW,217,9.0,-999.0,48,-99.99,,,-99.99,,2013-01-19 17:29:00,
2013-01-19 12:37:00,38.0,20.0,30.08,SSE,167,11.0,-999.0,47,-99.99,,,-99.99,,2013-01-19 17:37:00,
2013-01-19 12:49:00,38.0,20.0,30.08,SSE,167,11.0,-999.0,47,-99.99,,,-99.99,,2013-01-19 17:49:00,
2013-01-19 12:55:00,39.0,20.0,30.07,SSW,211,9.0,-999.0,47,-99.99,,,-99.99,,2013-01-19 17:55:00,
2013-01-19 13:13:00,39.0,20.0,30.07,SW,225,10.0,-999.0,47,-99.99,,,-99.99,,2013-01-19 18:13:00,
2013-01-19 13:29:00,40.0,21.0,30.07,WSW,244,7.0,-999.0,47,-99.99,,,-99.99,,2013-01-19 18:29:00,
2013-01-19 13:37:00,40.0,21.0,30.06,SSW,196,8.0,-999.0,46,-99.99,,,-99.99,,2013-01-19 18:37:00,
2013-01-19 13:45:00,40.0,21.0,30.06,SSW,196,8.0,-999.0,46,-99.99,,,-99.99,,2013-01-19 18:45:00,
2013-01-19 13:55:00,41.0,22.0,30.05,SSW,211,7.0,-999.0,47,-99.99,,,-99.99,,2013-01-19 18:55:00,
2013-01-19 14:10:00,42.0,23.0,30.05,WSW,250,8.0,-999.0,46,-99.99,,,-99.99,,2013-01-19 19:10:00,
2013-01-19 14:21:00,42.0,23.0,30.05,WSW,250,8.0,-999.0,46,-99.99,,,-99.99,,2013-01-19 19:21:00,
2013-01-19 14:31:00,42.0,23.0,30.05,WSW,250,8.0,-999.0,46,-99.99,,,-99.99,,2013-01-19 19:31:00,
2013-01-19 14:40:00,43.0,23.0,30.04,South,187,6.0,-999.0,45,-99.99,,,-99.99,,2013-01-19 19:40:00,
2013-01-19 14:47:00,43.0,23.0,30.04,South,187,6.0,-999.0,45,-99.99,,,-99.99,,2013-01-19 19:47:00,
2013-01-19 14:59:00,44.0,23.0,30.04,WNW,296,7.0,-999.0,44,-99.99,,,-99.99,,2013-01-19 19:59:00,
2013-01-19 15:11:00,43.0,22.0,30.04,SW,222,11.0,-999.0,43,-99.99,,,-99.99,,2013-01-19 20:11:00,
2013-01-19 15:20:00,43.0,22.0,30.04,SW,222,11.0,-999.0,43,-99.99,,,-99.99,,2013-01-19 20:20:00,
2013-01-19 15:39:00,43.0,23.0,30.03,WSW,242,7.0,-999.0,45,-99.99,,,-99.99,,2013-01-19 20:39:00,
2013-01-19 15:49:00,43.0,23.0,30.03,WSW,242,7.0,-999.0,45,-99.99,,,-99.99,,2013-01-19 20:49:00,
2013-01-19 15:54:00,42.0,23.0,30.03,SW,234,4.0,-999.0,46,-99.99,,,-99.99,,2013-01-19 20:54:00,
2013-01-19 16:15:00,41.0,22.0,30.03,WSW,251,5.0,-999.0,47,-99.99,,,-99.99,,2013-01-19 21:15:00,
2013-01-19 16:46:00,40.0,21.0,30.02,WNW,286,5.0,-999.0,47,-99.99,,,-99.99,,2013-01-19 21:46:00,
2013-01-19 16:51:00,40.0,21.0,30.02,WNW,286,5.0,-999.0,47,-99.99,,,-99.99,,2013-01-19 21:51:00,
2013-01-19 16:57:00,40.0,22.0,30.02,WSW,244,4.0,-999.0,48,-99.99,,,-99.99,,2013-01-19 21:57:00,
2013-01-19 17:15:00,40.0,22.0,30.01,WSW,242,4.0,-999.0,49,-99.99,,,-99.99,,2013-01-19 22:15:00,
2013-01-19 17:28:00,39.0,21.0,30.01,WSW,242,3.0,-999.0,49,-99.99,,,-99.99,,2013-01-19 22:28:00,
2013-01-19 17:35:00,39.0,21.0,30.01,WSW,251,4.0,-999.0,49,-99.99,,,-99.99,,2013-01-19 22:35:00,
2013-01-19 17:48:00,39.0,21.0,30.01,WSW,251,4.0,-999.0,49,-99.99,,,-99.99,,2013-01-19 22:48:00,
2013-01-19 17:55:00,39.0,21.0,30.01,WSW,240,5.0,-999.0,49,-99.99,,,-99.99,,2013-01-19 22:55:00,
2013-01-19 18:14:00,39.0,21.0,30.01,WSW,240,5.0,-999.0,49,-99.99,,,-99.99,,2013-01-19 23:14:00,
2013-01-19 18:27:00,39.0,21.0,29.99,SSE,153,5.0,-999.0,48,-99.99,,,-99.99,,2013-01-19 23:27:00,
2013-01-19 18:35:00,39.0,21.0,29.99,WSW,248,5.0,-999.0,48,-99.99,,,-99.99,,2013-01-19 23:35:00,
2013-01-19 18:47:00,39.0,21.0,29.99,WSW,248,5.0,-999.0,48,-99.99,,,-99.99,,2013-01-19 23:47:00,
2013-01-19 19:00:00,39.0,21.0,29.98,SW,216,7.0,-999.0,48,-99.99,,,-99.99,,2013-01-20 00:00:00,
2013-01-19 19:09:00,40.0,21.0,29.97,SW,223,8.0,-999.0,47,-99.99,,,-99.99,,2013-01-20 00:09:00,
2013-01-19 19:16:00,40.0,21.0,29.97,SW,223,8.0,-999.0,47,-99.99,,,-99.99,,2013-01-20 00:16:00,
2013-01-19 19:26:00,40.0,21.0,29.97,West,266,9.0,-999.0,46,-99.99,,,-99.99,,2013-01-20 00:26:00,
2013-01-19 19:36:00,40.0,21.0,29.97,SSE,148,8.0,-999.0,46,-99.99,,,-99.99,,2013-01-20 00:36:00,
2013-01-19 19:47:00,40.0,21.0,29.97,SSE,148,8.0,-999.0,46,-99.99,,,-99.99,,2013-01-20 00:47:00,
2013-01-19 19:54:00,40.0,21.0,29.96,WSW,248,6.0,-999.0,46,-99.99,,,-99.99,,2013-01-20 00:54:00,
2013-01-19 20:04:00,40.0,21.0,29.96,SW,229,6.0,-999.0,46,-99.99,,,-99.99,,2013-01-20 01:04:00,
2013-01-19 20:21:00,40.0,21.0,29.96,SW,229,6.0,-999.0,46,-99.99,,,-99.99,,2013-01-20 01:21:00,
2013-01-19 20:28:00,40.0,20.0,29.95,SSW,213,8.0,-999.0,45,-99.99,,,-99.99,,2013-01-20 01:28:00,
2013-01-19 20:38:00,40.0,20.0,29.95,South,183,8.0,-999.0,45,-99.99,,,-99.99,,2013-01-20 01:38:00,
2013-01-19 20:59:00,41.0,22.0,29.93,South,186,8.0,-999.0,46,-99.99,,,-99.99,,2013-01-20 01:59:00,
2013-01-19 21:09:00,41.0,22.0,29.93,SW,234,7.0,-999.0,46,-99.99,,,-99.99,,2013-01-20 02:09:00,
2013-01-19 21:15:00,41.0,22.0,29.93,SW,234,7.0,-999.0,46,-99.99,,,-99.99,,2013-01-20 02:15:00,
2013-01-19 21:27:00,41.0,21.0,29.92,SSW,209,7.0,-999.0,45,-99.99,,,-99.99,,2013-01-20 02:27:00,
2013-01-19 21:37:00,41.0,22.0,29.91,SE,127,7.0,-999.0,46,-99.99,,,-99.99,,2013-01-20 02:37:00,
2013-01-19 21:45:00,41.0,22.0,29.91,SE,127,7.0,-999.0,46,-99.99,,,-99.99,,2013-01-20 02:45:00,
2013-01-19 21:56:00,41.0,22.0,29.91,SE,127,7.0,-999.0,46,-99.99,,,-99.99,,2013-01-20 02:56:00,
2013-01-19 22:09:00,41.0,23.0,29.89,SSW,202,7.0,-999.0,48,-99.99,,,-99.99,,2013-01-20 03:09:00,
2013-01-19 22:15:00,41.0,23.0,29.89,SSW,202,7.0,-999.0,48,-99.99,,,-99.99,,2013-01-20 03:15:00,
2013-01-19 22:39:00,41.0,23.0,29.88,SW,229,9.0,-999.0,49,-99.99,,,-99.99,,2013-01-20 03:39:00,
2013-01-19 22:45:00,41.0,23.0,29.88,SW,229,9.0,-999.0,49,-99.99,,,-99.99,,2013-01-20 03:45:00,
2013-01-19 22:54:00,41.0,23.0,29.87,SW,236,8.0,-999.0,49,-99.99,,,-99.99,,2013-01-20 03:54:00,
2013-01-19 23:05:00,41.0,23.0,29.86,SW,225,7.0,-999.0,49,-99.99,,,-99.99,,2013-01-20 04:05:00,
2013-01-19 23:15:00,41.0,23.0,29.86,SW,225,7.0,-999.0,49,-99.99,,,-99.99,,2013-01-20 04:15:00,
2013-01-19 23:37:00,42.0,24.0,29.85,WSW,238,8.0,-999.0,48,-99.99,,,-99.99,,2013-01-20 04:37:00,
2013-01-19 23:45:00,42.0,24.0,29.85,WSW,238,8.0,-999.0,48,-99.99,,,-99.99,,2013-01-20 04:45:00,
2013-01-19 23:54:00,42.0,24.0,29.83,South,185,7.0,-999.0,48,-99.99,,,-99.99,,2013-01-20 04:54:00,